| time (UTC) | temp F | wind direction | speed MPH | gust MPH | rain 1hr in | rain 24hr in | rain mn in | humidity % | barometer mb |
| 20260507044438 | 59 | 170 | 3.0 | 6.0 | 0.00 | 0.00 | 0.00 | 91 | |
| 20260507043223 | 59 | 144 | 5.0 | 9.0 | 0.00 | 0.00 | 0.00 | 92 | |
| 20260507042045 | 59 | 162 | 4.0 | 8.0 | 0.00 | 0.00 | 0.00 | 92 | |
| 20260507040821 | 59 | 182 | 4.0 | 9.0 | 0.00 | 0.00 | 0.00 | 92 | |
| 20260507035631 | 59 | 173 | 4.0 | 6.0 | 0.00 | 0.00 | 0.00 | 92 | |
| 20260507034432 | 59 | 177 | 3.0 | 6.0 | 0.00 | 0.00 | 0.00 | 92 | |
| 20260507033225 | 59 | 151 | 3.0 | 4.0 | 0.00 | 0.00 | 0.00 | 92 | |
| 20260507032024 | 59 | 150 | 2.0 | 3.0 | 0.00 | 0.00 | 0.00 | 92 | |
| 20260507030831 | 59 | 145 | 2.0 | 5.0 | 0.00 | 0.00 | 0.00 | 92 | |
| 20260507025615 | 59 | 181 | 3.0 | 4.0 | 0.00 | 0.00 | 0.00 | 92 | |
| 20260507024451 | 59 | 196 | 2.0 | 3.0 | 0.00 | 0.00 | 0.00 | 92 | |
| 20260507023227 | 59 | 178 | 3.0 | 4.0 | 0.00 | 0.00 | 0.00 | 92 | |
| 20260507022040 | 59 | 185 | 3.0 | 4.0 | 0.00 | 0.00 | 0.00 | 92 | |
| 20260507020826 | 59 | 187 | 2.0 | 3.0 | 0.00 | 0.00 | 0.00 | 91 | |
| 20260507015617 | 60 | 197 | 4.0 | 7.0 | 0.00 | 0.00 | 0.00 | 92 | |
| 20260507014451 | 60 | 225 | 3.0 | 4.0 | 0.00 | 0.00 | 0.00 | 91 | |
| 20260507013309 | 60 | 168 | 3.0 | 6.0 | 0.00 | 0.00 | 0.00 | 91 | |
| 20260507012015 | 60 | 180 | 5.0 | 8.0 | 0.00 | 0.00 | 0.00 | 91 | |
| 20260507010831 | 59 | 200 | 4.0 | 6.0 | 0.00 | 0.00 | 0.00 | 91 | |
| 20260507005631 | 59 | 215 | 3.0 | 5.0 | 0.00 | 0.00 | 0.00 | 91 | |
| 20260507004445 | 59 | 205 | 4.0 | 6.0 | 0.00 | 0.00 | 0.00 | 90 | |
| 20260507003217 | 60 | 215 | 4.0 | 5.0 | 0.00 | 0.00 | 0.00 | 90 | |
| 20260507002024 | 60 | 217 | 3.0 | 4.0 | 0.00 | 0.00 | 0.00 | 90 | |
| 20260507000815 | 60 | 205 | 3.0 | 4.0 | 0.00 | 0.00 | 0.00 | 90 | |
| 20260506235621 | 60 | 184 | 4.0 | 9.0 | 0.00 | 0.00 | 0.00 | 90 | |
| 20260506234427 | 60 | 163 | 4.0 | 6.0 | 0.00 | 0.00 | 0.00 | 90 | |
| 20260506233219 | 60 | 159 | 5.0 | 10.0 | 0.00 | 0.00 | 0.00 | 90 | |
| 20260506232024 | 60 | 178 | 5.0 | 7.0 | 0.00 | 0.00 | 0.00 | 90 | |
| 20260506230837 | 60 | 171 | 4.0 | 6.0 | 0.00 | 0.00 | 0.00 | 90 | |
| 20260506225617 | 60 | 205 | 4.0 | 6.0 | 0.00 | 0.00 | 0.00 | 89 | |
| 20260506224415 | 59 | 190 | 3.0 | 6.0 | 0.00 | 0.00 | 0.00 | 89 | |
| 20260506223241 | 59 | 187 | 4.0 | 6.0 | 0.00 | 0.00 | 0.00 | 89 | |
| 20260506222024 | 59 | 204 | 3.0 | 3.0 | 0.00 | 0.00 | 0.00 | 88 | |
| 20260506220830 | 59 | 147 | 4.0 | 7.0 | 0.00 | 0.00 | 0.00 | 88 | |
| 20260506214417 | 59 | 176 | 3.0 | 6.0 | 0.00 | 0.00 | 0.00 | 88 | |
| 20260506213221 | 59 | 153 | 3.0 | 4.0 | 0.00 | 0.00 | 0.00 | 88 | |
| 20260506212104 | 59 | 193 | 5.0 | 11.0 | 0.00 | 0.00 | 0.00 | 88 | |
| 20260506210821 | 59 | 197 | 4.0 | 8.0 | 0.00 | 0.00 | 0.00 | 88 | |
| 20260506205647 | 59 | 160 | 7.0 | 15.0 | 0.00 | 0.00 | 0.00 | 88 | |
| 20260506204430 | 59 | 147 | 7.0 | 13.0 | 0.00 | 0.00 | 0.00 | 88 | |
| 20260506203217 | 58 | 200 | 6.0 | 9.0 | 0.00 | 0.00 | 0.00 | 87 | |
| 20260506202017 | 58 | 159 | 5.0 | 6.0 | 0.00 | 0.00 | 0.00 | 87 | |
| 20260506200823 | 57 | 191 | 4.0 | 13.0 | 0.00 | 0.00 | 0.00 | 85 | |
| 20260506195630 | 57 | 167 | 5.0 | 9.0 | 0.00 | 0.00 | 0.00 | 85 | |
| 20260506194421 | 57 | 192 | 6.0 | 8.0 | 0.00 | 0.00 | 0.00 | 85 | |
| 20260506193227 | 57 | 143 | 6.0 | 10.0 | 0.00 | 0.00 | 0.00 | 85 | |
| 20260506192019 | 57 | 181 | 3.0 | 4.0 | 0.00 | 0.00 | 0.00 | 85 | |
| 20260506190825 | 58 | 207 | 3.0 | 6.0 | 0.00 | 0.00 | 0.00 | 86 | |
| 20260506185637 | 58 | 152 | 5.0 | 8.0 | 0.00 | 0.00 | 0.00 | 85 | |
| 20260506184423 | 59 | 151 | 3.0 | 6.0 | 0.00 | 0.00 | 0.00 | 85 | |
| 20260506183235 | 59 | 171 | 4.0 | 5.0 | 0.00 | 0.00 | 0.00 | 84 | |
| 20260506182023 | 60 | 191 | 4.0 | 6.0 | 0.00 | 0.00 | 0.00 | 82 | |
| 20260506180819 | 62 | 191 | 5.0 | 7.0 | 0.00 | 0.00 | 0.00 | 81 | |
| 20260506175619 | 62 | 185 | 5.0 | 12.0 | 0.00 | 0.00 | 0.00 | 80 | |
| 20260506174505 | 62 | 136 | 6.0 | 13.0 | 0.00 | 0.00 | 0.00 | 80 | |
| 20260506173237 | 62 | 160 | 4.0 | 5.0 | 0.00 | 0.00 | 0.00 | 80 | |
| 20260506172021 | 63 | 142 | 5.0 | 8.0 | 0.00 | 0.00 | 0.00 | 78 | |
| 20260506170815 | 63 | 154 | 6.0 | 8.0 | 0.00 | 0.00 | 0.00 | 78 | |
| 20260506165641 | 64 | 126 | 7.0 | 10.0 | 0.00 | 0.00 | 0.00 | 78 | |
| 20260506164424 | 64 | 136 | 8.0 | 11.0 | 0.00 | 0.00 | 0.00 | 77 | |
| 20260506163219 | 65 | 156 | 6.0 | 11.0 | 0.00 | 0.00 | 0.00 | 77 | |
| 20260506162020 | 67 | 159 | 6.0 | 9.0 | 0.00 | 0.00 | 0.00 | 76 | |
| 20260506160829 | 67 | 146 | 8.0 | 13.0 | 0.00 | 0.00 | 0.00 | 76 | |
| 20260506155623 | 67 | 159 | 7.0 | 11.0 | 0.00 | 0.00 | 0.00 | 76 | |
| 20260506154415 | 67 | 140 | 9.0 | 13.0 | 0.00 | 0.00 | 0.00 | 76 | |
| 20260506153221 | 68 | 162 | 5.0 | 6.0 | 0.00 | 0.00 | 0.00 | 76 | |
| 20260506152018 | 68 | 174 | 3.0 | 5.0 | 0.00 | 0.00 | 0.00 | 76 | |
| 20260506150839 | 68 | 171 | 5.0 | 10.0 | 0.00 | 0.00 | 0.00 | 76 | |
| 20260506145625 | 68 | 145 | 6.0 | 8.0 | 0.00 | 0.00 | 0.00 | 76 | |
| 20260506144429 | 68 | 160 | 6.0 | 10.0 | 0.00 | 0.00 | 0.00 | 77 | |
| 20260506143223 | 67 | 173 | 5.0 | 8.0 | 0.00 | 0.00 | 0.00 | 78 | |
| 20260506142035 | 67 | 169 | 6.0 | 9.0 | 0.00 | 0.00 | 0.00 | 78 | |
| 20260506140829 | 67 | 132 | 5.0 | 8.0 | 0.00 | 0.00 | 0.00 | 80 | |
| 20260506135627 | 66 | 193 | 5.0 | 9.0 | 0.00 | 0.00 | 0.00 | 81 | |
| 20260506134419 | 66 | 180 | 5.0 | 7.0 | 0.00 | 0.00 | 0.00 | 81 | |
| 20260506133229 | 66 | 168 | 4.0 | 10.0 | 0.00 | 0.00 | 0.00 | 81 | |
| 20260506132017 | 66 | 160 | 6.0 | 11.0 | 0.00 | 0.00 | 0.00 | 81 | |
| 20260506130823 | 66 | 193 | 5.0 | 7.0 | 0.00 | 0.00 | 0.00 | 82 | |
| 20260506125615 | 66 | 146 | 5.0 | 7.0 | 0.00 | 0.00 | 0.00 | 84 | |
| 20260506124429 | 65 | 194 | 5.0 | 6.0 | 0.00 | 0.00 | 0.00 | 85 | |
| 20260506123229 | 63 | 206 | 5.0 | 9.0 | 0.00 | 0.00 | 0.00 | 86 | |
| 20260506122015 | 63 | 188 | 4.0 | 7.0 | 0.00 | 0.00 | 0.00 | 86 | |
| 20260506120829 | 64 | 189 | 4.0 | 6.0 | 0.00 | 0.00 | 0.00 | 86 | |
| 20260506115617 | 64 | 195 | 4.0 | 8.0 | 0.00 | 0.00 | 0.00 | 87 | |
| 20260506114423 | 62 | 214 | 4.0 | 6.0 | 0.00 | 0.00 | 0.00 | 87 | |
| 20260506113249 | 62 | 196 | 3.0 | 4.0 | 0.00 | 0.00 | 0.00 | 87 | |
| 20260506112021 | 62 | 169 | 4.0 | 5.0 | 0.00 | 0.00 | 0.00 | 87 | |
| 20260506110827 | 61 | 135 | 5.0 | 9.0 | 0.00 | 0.00 | 0.00 | 87 | |
| 20260506105619 | 62 | 145 | 6.0 | 10.0 | 0.00 | 0.00 | 0.00 | 87 | |
| 20260506104425 | 62 | 161 | 6.0 | 13.0 | 0.00 | 0.00 | 0.00 | 88 | |
| 20260506103217 | 62 | 175 | 6.0 | 10.0 | 0.00 | 0.00 | 0.00 | 88 | |
| 20260506102023 | 61 | 155 | 6.0 | 8.0 | 0.00 | 0.00 | 0.00 | 89 | |
| 20260506100815 | 60 | 166 | 6.0 | 9.0 | 0.00 | 0.00 | 0.00 | 89 | |
| 20260506095618 | 60 | 132 | 4.0 | 8.0 | 0.00 | 0.00 | 0.00 | 89 | |
| 20260506094448 | 60 | 139 | 5.0 | 11.0 | 0.00 | 0.00 | 0.00 | 90 | |
| 20260506093227 | 60 | 157 | 5.0 | 10.0 | 0.00 | 0.00 | 0.00 | 90 | |
| 20260506092025 | 60 | 139 | 5.0 | 8.0 | 0.00 | 0.00 | 0.00 | 90 | |
| 20260506090817 | 60 | 153 | 6.0 | 10.0 | 0.00 | 0.00 | 0.00 | 91 | |
| 20260506085623 | 60 | 131 | 7.0 | 15.0 | 0.00 | 0.00 | 0.00 | 91 | |
| 20260506084429 | 59 | 182 | 5.0 | 7.0 | 0.00 | 0.00 | 0.00 | 90 | |
| 20260506083221 | 59 | 193 | 7.0 | 9.0 | 0.00 | 0.00 | 0.00 | 90 | |
| 20260506082028 | 59 | 146 | 6.0 | 11.0 | 0.00 | 0.00 | 0.00 | 90 | |
| 20260506080828 | 59 | 143 | 7.0 | 11.0 | 0.00 | 0.00 | 0.00 | 90 | |
| 20260506073239 | 58 | 139 | 3.0 | 6.0 | 0.00 | 0.00 | 0.00 | 89 | |
| 20260506072015 | 58 | 140 | 3.0 | 9.0 | 0.00 | 0.00 | 0.00 | 88 | |
| 20260506070821 | 58 | 163 | 3.0 | 6.0 | 0.00 | 0.00 | 0.00 | 88 | |
| 20260506062028 | 59 | 138 | 3.0 | 7.0 | 0.00 | 0.00 | 0.00 | 83 | |
| 20260506060824 | 61 | 177 | 3.0 | 6.0 | 0.00 | 0.00 | 0.00 | 82 | |
| 20260506050840 | 61 | 169 | 4.0 | 7.0 | 0.00 | 0.00 | 0.00 | 82 |